Total_Precipitation_Accumulation
1.88 2.25 2.61 3.05 3.49 4.00 4.74 5.36 5.77 5.74 5.54 5.16 4.77 4.46 3.98 3.68 3.43 3.14 2.92 2.69 2.43 2.32 2.61 2.40 2.66 2.56 2.42 2.25 2.23 2.32 2.35 2.09 2.34 2.54 2.07 1.57 1.32 1.23 1.10 1.11 1.20 1.14 1.23
1.83 2.18 2.68 2.97 3.31 3.83 4.39 4.80 4.78 4.45 4.32 4.30 4.18 3.90 3.92 3.77 3.64 3.37 3.15 2.75 2.57 2.42 2.26 2.42 2.26 2.20 2.26 2.08 1.98 2.16 2.16 1.92 2.26 2.35 2.29 1.74 1.51 1.27 0.90 1.02 1.13 1.22 1.45
1.48 1.82 2.36 2.67 2.84 3.30 3.64 3.67 3.55 3.38 3.41 3.46 3.42 3.50 3.70 3.71 3.65 3.49 3.20 2.91 2.76 2.64 2.50 2.39 2.18 2.09 1.93 1.96 1.98 2.05 2.08 1.98 1.99 2.06 2.22 1.81 1.47 1.27 0.97 0.97 1.15 1.43 1.67
1.24 1.53 1.85 2.08 2.33 2.53 2.67 2.67 2.74 2.76 2.77 2.81 2.80 2.70 2.74 2.92 3.13 3.33 3.36 3.30 3.08 2.84 2.58 2.40 2.16 1.96 1.82 1.95 1.68 1.78 2.04 2.10 1.85 1.86 1.83 1.72 1.79 1.75 1.41 1.07 1.00 1.27 1.46
1.27 1.45 1.55 1.71 1.80 1.82 1.93 1.99 2.28 2.59 2.69 2.73 2.82 2.72 2.45 2.44 2.49 2.63 2.76 2.76 2.76 2.61 2.32 2.21 2.13 1.95 1.79 1.78 1.74 1.96 1.97 1.93 1.84 1.89 1.87 1.94 2.05 1.89 1.76 1.46 1.37 1.45 1.40
0.97 1.19 1.43 1.51 1.45 1.43 1.59 1.79 2.09 2.47 2.68 2.72 2.68 2.65 2.55 2.51 2.42 2.41 2.45 2.32 2.31 2.25 2.11 2.03 2.05 1.90 1.77 1.75 1.75 1.86 1.93 2.00 2.05 2.02 1.97 2.01 1.98 1.98 2.15 1.90 1.76 1.71 1.49
0.73 0.74 0.92 1.16 1.12 1.09 1.23 1.50 1.70 1.98 2.19 2.29 2.29 2.22 2.33 2.42 2.30 2.17 2.09 2.01 1.87 1.79 1.81 1.89 1.97 1.81 1.75 1.82 1.94 1.90 1.86 1.96 2.04 1.97 2.01 2.07 2.00 2.10 2.25 2.21 1.97 1.81 1.63
0.53 0.51 0.58 0.72 0.93 0.94 0.98 1.10 1.34 1.53 1.72 1.81 1.93 2.03 2.20 2.30 2.25 2.40 2.21 2.04 1.75 1.62 1.68 1.87 1.92 1.83 1.75 1.73 2.01 2.00 1.99 2.05 2.04 1.92 2.15 2.19 2.01 2.20 2.41 2.51 2.52 2.26 2.11
0.41 0.43 0.50 0.68 0.69 0.68 0.73 0.85 1.07 1.24 1.40 1.55 1.73 1.80 1.78 1.79 1.93 2.11 2.13 1.98 1.88 1.70 1.77 1.83 1.98 2.04 2.07 2.09 2.21 2.13 2.14 2.30 2.28 2.21 2.34 2.34 2.22 2.24 2.37 2.59 2.77 2.81 2.63
0.40 0.41 0.44 0.51 0.50 0.49 0.64 0.87 1.04 1.05 1.27 1.57 1.75 1.66 1.65 1.56 1.70 1.77 1.82 1.88 1.82 1.80 1.84 1.84 1.90 2.00 2.09 2.15 2.28 2.25 2.31 2.49 2.51 2.56 2.64 2.53 2.29 2.35 2.42 2.56 2.82 3.06 3.08
0.45 0.45 0.44 0.44 0.55 0.49 0.59 0.75 0.87 1.00 1.26 1.58 1.77 1.76 1.62 1.61 1.73 1.66 1.64 1.76 1.80 1.78 1.83 1.83 1.80 1.78 1.91 2.12 2.31 2.29 2.43 2.55 2.59 2.59 2.50 2.40 2.43 2.56 2.48 2.59 2.74 2.94 3.14
0.38 0.36 0.33 0.38 0.38 0.38 0.51 0.80 1.11 1.45 1.60 1.84 2.08 2.08 1.79 1.62 1.56 1.45 1.46 1.65 1.84 1.86 1.83 1.81 1.78 1.73 1.82 2.08 2.26 2.37 2.63 2.76 2.66 2.57 2.52 2.41 2.50 2.59 2.54 2.59 2.57 2.62 2.89
0.39 0.39 0.35 0.42 0.39 0.38 0.42 0.56 0.70 1.03 1.34 1.65 1.91 1.85 1.61 1.46 1.42 1.44 1.50 1.64 1.78 1.79 1.75 1.77 1.82 1.93 2.04 2.23 2.37 2.48 2.67 2.65 2.54 2.54 2.45 2.33 2.38 2.34 2.40 2.44 2.40 2.37 2.46
0.49 0.45 0.42 0.40 0.40 0.41 0.38 0.46 0.53 0.61 0.81 1.20 1.48 1.49 1.36 1.32 1.35 1.41 1.43 1.43 1.47 1.53 1.59 1.79 2.02 2.19 2.32 2.40 2.45 2.45 2.44 2.44 2.35 2.25 2.16 2.15 2.23 2.29 2.28 2.20 2.19 2.24 2.36
0.49 0.47 0.46 0.50 0.52 0.57 0.52 0.49 0.52 0.55 0.71 1.09 1.31 1.29 1.26 1.27 1.25 1.25 1.33 1.40 1.46 1.50 1.71 1.90 2.01 2.06 2.12 2.20 2.31 2.31 2.24 2.20 2.11 2.00 1.81 1.83 2.11 2.24 2.18 2.00 2.07 2.18 2.27
0.47 0.44 0.39 0.49 0.57 0.61 0.60 0.56 0.55 0.60 0.72 0.99 1.21 1.21 1.20 1.18 1.12 1.17 1.27 1.43 1.53 1.68 1.86 1.89 1.88 1.84 1.61 1.71 1.83 1.86 1.88 1.87 1.84 1.74 1.68 1.69 1.78 1.78 1.80 1.77 1.76 1.82 1.93
0.45 0.40 0.44 0.57 0.77 0.69 0.65 0.69 0.64 0.65 0.78 0.98 1.16 1.25 1.22 1.24 1.23 1.20 1.37 1.56 1.71 1.85 1.97 1.95 1.90 1.79 1.72 1.62 1.51 1.49 1.54 1.67 1.69 1.70 1.74 1.51 1.39 1.50 1.53 1.62 1.58 1.53 1.62
0.56 0.58 0.56 0.61 0.68 0.64 0.67 0.72 0.72 0.72 0.83 1.03 1.25 1.34 1.28 1.34 1.42 1.43 1.51 1.72 1.93 2.07 2.09 2.04 1.97 1.92 1.86 1.75 1.54 1.50 1.46 1.58 1.61 1.60 1.60 1.58 1.50 1.47 1.57 1.63 1.57 1.44 1.40
0.67 0.70 0.74 0.72 0.77 0.80 0.79 0.79 0.85 0.90 0.99 1.09 1.26 1.37 1.43 1.51 1.54 1.58 1.75 1.96 2.15 2.19 2.15 2.19 2.11 2.04 2.07 1.91 1.58 1.42 1.38 1.56 1.59 1.58 1.55 1.52 1.48 1.52 1.40 1.37 1.39 1.37 1.33
0.83 0.78 0.82 0.85 0.88 0.92 0.97 0.98 1.04 1.17 1.32 1.41 1.48 1.66 1.84 1.99 2.07 2.12 2.19 2.24 2.31 2.23 2.20 2.18 2.19 2.12 2.12 2.02 1.53 1.30 1.30 1.50 1.54 1.61 1.58 1.49 1.36 1.33 1.21 1.19 1.33 1.30 1.28
0.75 0.79 0.79 0.88 0.96 0.97 1.08 1.24 1.32 1.42 1.56 1.70 1.78 1.97 2.27 2.44 2.43 2.44 2.39 2.31 2.31 2.33 2.30 2.22 2.20 2.16 2.08 1.99 1.58 1.39 1.41 1.55 1.64 1.64 1.60 1.54 1.40 1.20 1.15 1.10 1.14 1.19 1.17
0.70 0.78 0.82 0.86 1.01 1.23 1.41 1.64 1.71 1.66 1.76 1.93 2.08 2.27 2.51 2.45 2.37 2.55 2.49 2.45 2.53 2.52 2.38 2.28 2.20 2.21 2.17 1.99 1.67 1.42 1.47 1.61 1.73 1.80 1.75 1.66 1.44 1.20 1.11 1.03 1.01 0.97 0.90
0.68 0.76 0.83 0.92 1.05 1.29 1.64 1.87 1.91 1.97 2.02 2.11 2.21 2.27 2.37 2.55 2.71 2.78 2.68 2.60 2.60 2.53 2.34 2.23 2.10 2.02 2.08 2.10 1.69 1.41 1.46 1.54 1.58 1.75 1.78 1.53 1.31 1.15 0.99 0.97 0.96 0.85 0.78
0.73 0.76 0.84 1.01 1.23 1.43 1.70 1.84 1.86 1.90 1.97 1.99 1.98 2.05 2.20 2.35 2.44 2.68 2.75 2.66 2.54 2.47 2.41 2.31 2.15 2.04 2.05 2.05 1.72 1.40 1.38 1.44 1.44 1.52 1.59 1.45 1.28 1.14 1.02 0.96 0.91 0.86 0.87
0.75 0.83 0.91 1.02 1.15 1.34 1.52 1.59 1.75 1.82 1.93 1.94 1.90 1.89 1.91 2.02 2.12 2.23 2.34 2.32 2.30 2.12 2.02 1.94 1.88 1.85 1.87 1.83 1.57 1.38 1.37 1.48 1.53 1.49 1.51 1.51 1.38 1.25 1.15 1.12 1.14 1.15 1.09
0.72 0.83 0.94 1.05 1.14 1.29 1.49 1.57 1.69 1.77 1.82 1.80 1.74 1.76 1.77 1.85 1.89 1.90 1.84 1.68 1.61 1.47 1.32 1.27 1.22 1.24 1.29 1.39 1.23 1.11 1.19 1.34 1.39 1.31 1.34 1.45 1.44 1.37 1.29 1.22 1.22 1.20 1.14